This demonstration page uses our WeatherBlox Daily Observations layout. Learn more.

Left ArrowRight Arrow

Hourly Observations for June 5, 2016

Temp ( °F °C ) Dew Point ( °F °C ) Humidity (%) Winds ( mph kmh ) Pressure ( in mb ) Visibility ( mi km ) Precip ( " mm )
12:51 am 00:51 Clear 80 26.7 30 -1.1 16 16 ESE 6 9 29.73 1007 10 16 0.00 0.00
1:51 am 01:51 Clear 85 29.4 38 3.3 19 19 ESE 12 19 29.73 1007 10 16 0.00 0.00
2:51 am 02:51 Clear 84 28.9 40 4.4 21 21 E 13 20 29.73 1007 10 16 0.00 0.00
3:51 am 03:51 Clear 83 28.3 41 5 23 23 E 12 19 29.74 1007 10 16 0.00 0.00
4:51 am 04:51 Clear 81 27.2 41 5 24 24 E 9 15 29.75 1007 10 16 0.00 0.00
5:51 am 05:51 Sunny 82 27.8 42 5.6 24 24 E 10 17 29.77 1008 10 16 0.00 0.00
6:51 am 06:51 Sunny 85 29.4 44 6.7 24 24 ESE 13 20 29.79 1009 10 16 0.00 0.00
7:51 am 07:51 Sunny 88 31.1 45 7.2 22 22 ESE 15 24 29.81 1009 10 16 0.00 0.00
8:51 am 08:51 Sunny 91 32.8 45 7.2 20 20 SSE 13 20 29.81 1010 10 16 0.00 0.00
9:51 am 09:51 Sunny 92 33.3 45 7.2 20 20 SSE 6 9 29.80 1009 10 16 0.00 0.00
10:51 am 10:51 Sunny 95 35 45 7.2 18 18 S 7 11 29.78 1009 10 16 0.00 0.00
11:51 am 11:51 Sunny 99 37.2 44 6.7 15 15 SSW 10 17 29.75 1007 10 16 0.00 0.00
12:51 pm 12:51 Sunny 100 37.8 40 4.4 13 13 VRB 5 7 29.71 1006 10 16 0.00 0.00
1:51 pm 13:51 Sunny 103 39.4 37 2.8 10 10 undefined N/A 29.67 1005 10 16 0.00 0.00
2:51 pm 14:51 Sunny 106 41.1 29 -1.7 7 7 undefined N/A 29.64 1004 10 16 0.00 0.00
3:51 pm 15:51 Sunny 107 41.7 33 0.6 8 8 WNW 9 15 29.60 1002 10 16 0.00 0.00
4:51 pm 16:51 Sunny 106 41.1 28 -2.2 6 6 Calm 29.58 1002 10 16 0.00 0.00
5:51 pm 17:51 Sunny 104 40 29 -1.7 7 7 VRB 5 7 29.57 1001 10 16 0.00 0.00
6:51 pm 18:51 Sunny 102 38.9 29 -1.7 8 8 WNW 3 6 29.57 1001 10 16 0.00 0.00
7:51 pm 19:51 Clear 96 35.6 30 -1.1 10 10 WNW 5 7 29.58 1002 10 16 0.00 0.00
8:51 pm 20:51 Clear 89 31.7 25 -3.9 10 10 SE 7 11 29.62 1003 10 16 0.00 0.00
9:51 pm 21:51 Clear 89 31.7 35 1.7 15 15 ESE 6 9 29.65 1004 10 16 0.00 0.00
10:51 pm 22:51 Clear 88 31.1 37 2.8 16 16 S 9 15 29.67 1005 10 16 0.00 0.00
11:51 pm 23:51 Clear 86 30 39 3.9 19 19 SSE 6 9 29.66 1005 10 16 0.00 0.00

Powered by AerisWeather